Regional Weather Roundup
Issued by NWS

Home | Current Version | Previous Version | Text Only | Print | Product List | Glossary Off
Versions: 1 2 3 4 5 6 7 8 9 10 11 12 13 14 15 16 17 18 19 20 21 22 23 24 25 26 27 28 29 30 31 32 33 34 35 36 37 38 39 40 41 42 43 44 45 46 47 48 49 50

000
ASUS43 KLOT 280500
RWRIL

ILLINOIS REGIONAL WEATHER ROUNDUP
NATIONAL WEATHER SERVICE CHICAGO/ROMEOVILLE IL
1100 PM CST TUE JAN 27 2015

NOTE: "FAIR" INDICATES FEW OR NO CLOUDS BELOW 12,000 FEET WITH NO
SIGNIFICANT WEATHER AND/OR OBSTRUCTIONS TO VISIBILITY.

* THESE STATIONS ARE NOT UNDER NWS QUALITY CONTROL. THEY ALSO MAY NOT
  REPORT WEATHER SUCH AS PRECIPITATION OR FOG.

ILZ001-002-007-009-015-016-024-280600-
NORTHWEST ILLINOIS

CITY           SKY/WX    TMP DP  RH WIND       PRES   REMARKS
MOLINE         CLOUDY    27  22  81 SE7       30.25R WCI  19
STERLING*      CLOUDY    28  21  74 SE5       30.25S WCI  23
$$

ILZ003-004-008-010-011-017-018-280600-
NORTH CENTRAL ILLINOIS

CITY           SKY/WX    TMP DP  RH WIND       PRES   REMARKS
ROCKFORD       CLOUDY    24  18  77 SE5       30.27R WCI  18
$$

ILZ005-006-012>014-019>023-280600-
NORTHEAST ILLINOIS

CITY           SKY/WX    TMP DP  RH WIND       PRES   REMARKS
CHICAGO-OHARE  MOCLDY    21  16  81 CALM      30.26R
CHICAGO-MIDWAY PTCLDY    25  18  74 CALM      30.26S
AURORA         PTCLDY    19  13  77 CALM      30.26S
WAUKEGAN       CLOUDY    24  19  81 CALM      30.25S
DUPAGE AIRPORT PTCLDY    19  14  81 CALM      30.26R
WHEELING       MOCLDY    22  17  81 CALM      30.28R
NORTHERLY ISL    N/A     28  19  69 NE6         N/A  WCI  22
$$

LMZ740>746-280600-
SOUTHERN LAKE MICHIGAN

STATION/POSITION SKY/WX   TEMP    WIND        PRES    VSBY  WAVE
                          AIR SEA DIR/SP/G                  HT/PER
                          (F)     (DEG/KT/KT) (MB)    (MI)  (FT/S)
WAUKEGAN HARBOR            27        CALM       N/A
HARRISON CRIB              27      40/  5/  6   N/A
BURNHAM HARBOR             27      70/  2/  8   N/A
CALUMET HARBOR             26     340/  2/  4   N/A
MICHIGAN CITY              23     100/  6/  7   N/A
$$

ILZ025>027-034>036-040-047-049-050-058-095>099-280600-
WEST-CENTRAL ILLINOIS

CITY           SKY/WX    TMP DP  RH WIND       PRES   REMARKS
QUINCY         CLEAR     28  25  88 E8        30.22R FOG     WCI  20
$$

ILZ028>032-037-038-041>044-048-051>054-059>061-280600-
CENTRAL ILLINOIS

CITY           SKY/WX    TMP DP  RH WIND       PRES   REMARKS
DECATUR        PTCLDY    25  22  88 CALM      30.27R FOG
PEORIA         CLOUDY    31  24  75 SE7       30.25F WCI  24
SPRINGFIELD    PTCLDY    28  23  81 E3        30.26S
TAYLORVILLE    NOT AVBL
$$

ILZ033-039-045-046-055>057-062-063-280600-
EAST-CENTRAL ILLINOIS

CITY           SKY/WX    TMP DP  RH WIND       PRES   REMARKS
CHAMPAIGN      CLEAR     22  18  85 CALM      30.27R
MATTOON        CLEAR     23  20  88 CALM      30.26R
$$

ILZ079-100>102-280600-
SOUTHWEST ILLINOIS

CITY           SKY/WX    TMP DP  RH WIND       PRES   REMARKS
BELLEVILLE     CLEAR     26  26  99 E2        30.25S
CAHOKIA*       CLEAR     28  26  92 CALM      30.25F
$$

ILZ064>066-069>071-074>076-080>082-084>086-088>090-092>094-280600-
SOUTH-CENTRAL ILLINOIS

CITY           SKY/WX    TMP DP  RH WIND       PRES   REMARKS
CARBONDALE     CLEAR     29  25  85 CALM      30.26R
MT. VERNON     CLEAR     27  21  80 NE5       30.27R WCI  21
$$

ILZ067-068-072-073-078-083-087-091-280600-
SOUTHEAST ILLINOIS

CITY           SKY/WX    TMP DP  RH WIND       PRES   REMARKS
LAWRENCEVILLE  CLOUDY    29  24  82 NE5       30.28R WCI  24
$$

ABBREVIATIONS USED IN REMARKS
   TC - TEMPERATURE IN CELSIUS
  WCI - WIND CHILL INDEX
   HX - HEAT INDEX
  VSB - VISIBILITY
$$



USA.gov is the U.S. government's official web portal to all federal, state and local government web resources and services.